Weather in Mesker-Yurt

Russia / Chechen Republic     43°14′54″N   45°54′46″E
temp.,
°C
wind,
m/s
gust,
m/s
humid.,
%
clouds,
%
prec.,
mm/h
press.,
hPa
HPBL,
m
21 april, wed
wed2100:00+18wsw3570100 0.0 1010168
03:00+16w5984100 0.0 1012428
06:00+16wnw4776100 0.0 1014631
09:00+15wnw4671100 0.1 1018862
12:00+15nw4554100 0.0 1018931
15:00+13nw5573100 0.4 1020684
18:00+12ssw1286100 2.3 1021211
21:00+11ssw128922 2.3 102286
22 april, thu
thu2200:00+10sw1193100 0.1 102113
03:00+10ssw119388 0.1 102213
06:00+11ssw1188100 0.0 102271
09:00+13nnw227083 0.0 1022632
12:00+16n3357100 0.0 10221383
15:00+15ne2361100 0.0 1022997
18:00+14e1269100 0.0 1022122
21:00+13ne2474100 0.0 1022165
23 april, fri
fri2300:00+11ne2380100 0.0 1021130
03:00+11nw2280100 0.0 1021111
06:00+10nw2494100 1.4 1023342
09:00+10nw2393100 4.3 1024292
12:00+11wsw3584100 2.3 1024413
15:00+16wnw356060 2.3 10221237
18:00+15nne00654 0.0 102216
21:00+11se22815 0.0 102114
24 april, sat
sat2400:00+9ese228635 0.0 101922
03:00+9ese1185100 0.0 101815
06:00+9sw1285100 0.0 101951
09:00+15nw226528 0.0 1018652
12:00+19nnw225040 0.0 10181173
15:00+21nne22445 0.0 10171519
18:00+16ene576567 0.0 1018304
21:00+13ese127216 0.0 101946
25 april, sun
sun2500:00+11s017962 0.0 101914
03:00+10ssw1183100 0.0 101812
06:00+12se118191 0.0 101834
09:00+17nnw1161100 0.0 1017635
12:00+20ne335334 0.0 10141162
15:00+21ne3245100 0.0 10121417
18:00+18ene225744 0.0 1013156
21:00+15wsw6871100 0.0 1014406